Погода в Екатерино-Никольском

Россия / Еврейская автономная область     47°44′57″N   130°57′54″E
темп.,
°C
ветер,
м/с
пор.,
м/с
влажн.,
%
обл.,
%
осадки,
мм/ч
давл.,
гПа
погр.,
м
15 апреля, чт
чт1501:00−2зсз11480 0.0 101110
04:00−2юз225324 0.0 101115
07:00−2юз115344 0.0 101225
10:00+4юз34365 0.0 1012604
13:00+9юз46230 0.0 10111931
16:00+11юз242061 0.0 10102219
19:00+11вюв332495 0.0 1010160
22:00+6в3535100 0.0 101177
16 апреля, пт
пт1601:00+6св4741100 0.0 1010176
04:00+5св5949100 0.0 1010249
07:00+4всв51155100 0.0 1008315
10:00+9в6844100 0.0 1007691
13:00+14ююв91144100 0.0 10052012
16:00+11ююв91259100 0.1 10051383
19:00+9ююв81068100 0.1 10061089
22:00+8юв71370100 0.3 10071096
17 апреля, сб
сб1701:00+6вюв6983100 0.3 1007877
04:00+5всв5790100 0.6 1007733
07:00+5всв3591100 0.8 1008763
10:00+5св3494100 2.1 1010755
13:00+5св3390100 0.2 1011721
16:00+5ссв338990 0.4 1012418
19:00+6ссв348689 0.0 1013375
22:00+4с22905 0.0 101415
18 апреля, вс
вс1801:00+3ссз33915 0.0 101448
04:00+2с22905 0.0 101318
07:00+2ссз33895 0.0 101452
10:00+8с33610 0.0 1013530
13:00+13с34445 0.0 10111437
16:00+16ссз35346 0.0 10082172
19:00+15ссз573925 0.0 1008831
22:00+10ссз36575 0.0 1009113
19 апреля, пн
пн1901:00+8ссз36610 0.0 1009103
04:00+7ссз32670 0.0 100927
07:00+6ссз22720 0.0 100922
10:00+12с23490 0.0 1009534
13:00+16ссз34323 0.0 10071931
16:00+19ссз45251 0.0 10052302
19:00+17ссз57310 0.0 1005760
22:00+12ссз36460 0.0 100690